Location: Guayaquil
(2.1667°S, 79.9000°W)
Time: 08:50:00
(UTC-05:00)

N. Korean satellite - Visible Passes

Search period start: 18 June 2018 00:00
Search period end: 28 June 2018 00:00
Orbit: 459 x 511 km, 97.2° (Epoch: 17 June)

Date Brightness Start Highest point End Pass type
(mag) Time Alt. Az. Time Alt. Az. Time Alt. Az.
18 Jun 7.5 18:42:44 10° S 18:46:06 50° W 18:49:29 10° NNW visible
21 Jun 9.5 05:44:50 10° ENE 05:47:13 16° ESE 05:49:35 10° SE visible
21 Jun 9.1 19:04:29 10° SSW 19:07:12 21° W 19:09:56 10° NW visible
22 Jun 7.2 18:39:44 10° S 18:43:09 57° WSW 18:46:36 10° NNW visible
25 Jun 9.6 05:42:10 10° ENE 05:44:17 15° ESE 05:46:23 10° SE visible
25 Jun 8.9 19:01:22 10° SSW 19:04:14 24° W 19:07:08 10° NW visible
